Weather History for KANK - February, 2013

Change the Weather History Date:

Thursday, February 21, 2013

  Actual Average (KGUC) Record (KGUC)
Temperature  
Mean Temperature 28 °F -  
Max Temperature 38 °F 30 °F 46 °F (2007)
Min Temperature 18 °F 7 °F -7 °F (2009)
Degree Days  
Heating Degree Days 37    
Moisture  
Dew Point 20 °F    
Average Humidity 78    
Maximum Humidity 95    
Minimum Humidity 42    
Precipitation  
Precipitation 0.00 in - - ()
Sea Level Pressure  
Sea Level Pressure 29.71 in    
Wind  
Wind Speed 3 mph (SSW)    
Max Wind Speed 20 mph    
Max Gust Speed 26 mph    
Visibility 8 miles    
Events      
Averages and records for this station are not official NWS values.
T = Trace of Precipitation, MM = Missing Value Source: NWS Daily Summary

Daily Weather History Graph

Daily Weather History Graph

Search for Another Location

Airport or City:

Trip Planner

Search our weather history database for the weather conditions in past years. The results will help you decide how hot, cold, wet, or windy it might be!

Date:

Astronomy

Feb. 21, 2013 Rise Set
Actual Time 6:46 AM MST 5:49 PM MST
Civil Twilight 6:20 AM MST 6:16 PM MST
Nautical Twilight 5:49 AM MST 6:46 PM MST
Astronomical Twilight 5:18 AM MST 7:17 PM MST
Moon 2:08 PM MST (2/21) 3:51 AM MST (2/21)
Length of Visible Light 11h 55m
Length of Day
11h 02m
Waxing Gibbous, 84% of the Moon is Illuminated
Feb 21
Waxing Gibbous
Feb 25
Full
Mar 4
Last Quarter
Mar 11
New
Mar 19
First Quarter

Hourly Weather History & Observations

Time (MST) Temp. Windchill Dew Point Humidity Pressure Visibility Wind Dir Wind Speed Gust Speed Precip Events Conditions
12:15 AM 25.5 °F 19.9 °F 23.7 °F 93% 29.60 in 10.0 mi SE 4.6 mph - N/A   Overcast
12:35 AM 25.0 °F - 23.4 °F 94% 29.60 in 10.0 mi Calm Calm - N/A   Mostly Cloudy
12:55 AM 23.7 °F - 21.9 °F 93% 29.60 in 10.0 mi Calm Calm - N/A   Scattered Clouds
1:15 AM 22.8 °F - 20.7 °F 91% 29.60 in 10.0 mi Calm Calm - N/A   Clear
1:35 AM 20.5 °F - 18.3 °F 91% 29.60 in 10.0 mi Calm Calm - N/A   Clear
1:55 AM 19.8 °F - 17.8 °F 92% 29.60 in 10.0 mi Calm Calm - N/A   Clear
2:15 AM 20.8 °F - 19.4 °F 94% 29.60 in 10.0 mi Calm Calm - N/A   Clear
2:35 AM 22.3 °F - 21.0 °F 95% 29.60 in 10.0 mi Calm Calm - N/A   Mostly Cloudy
2:55 AM 23.5 °F - 22.1 °F 94% 29.59 in 10.0 mi Calm Calm - N/A   Overcast
3:15 AM 22.6 °F 18.0 °F 20.8 °F 93% 29.59 in 10.0 mi West 3.5 mph - N/A   Mostly Cloudy
3:35 AM 21.2 °F 16.4 °F 19.2 °F 92% 29.60 in 10.0 mi West 3.5 mph - N/A   Scattered Clouds
3:55 AM 21.9 °F 17.2 °F 20.1 °F 93% 29.60 in 10.0 mi West 3.5 mph - N/A   Overcast
4:15 AM 22.1 °F - 20.3 °F 93% 29.60 in 10.0 mi Calm Calm - N/A   Overcast
5:15 AM 22.1 °F - 19.9 °F 91% 29.62 in 10.0 mi Calm Calm - N/A   Overcast
5:35 AM 22.1 °F - 20.1 °F 92% 29.63 in 7.0 mi Calm Calm - N/A   Overcast
5:55 AM 23.0 °F 18.4 °F 20.3 °F 89% 29.63 in 5.0 mi WSW 3.5 mph - N/A   Overcast
6:15 AM 22.8 °F 18.2 °F 19.9 °F 89% 29.63 in 3.0 mi SW 3.5 mph - N/A   Overcast
6:35 AM 23.0 °F - 20.8 °F 91% 29.64 in 1.8 mi Calm Calm - N/A   Overcast
6:55 AM 23.7 °F - 21.2 °F 90% 29.65 in 1.2 mi Calm Calm - N/A   Overcast
7:15 AM 23.7 °F - 21.2 °F 90% 29.66 in 1.2 mi Calm Calm - N/A   Overcast
7:35 AM 23.9 °F - 21.9 °F 92% 29.67 in 1.0 mi Calm Calm - N/A   Overcast
7:55 AM 24.4 °F - 22.1 °F 91% 29.68 in 0.8 mi Calm Calm - N/A   Overcast
8:15 AM 24.8 °F - 22.1 °F 89% 29.69 in 1.0 mi Calm Calm - N/A   Overcast
8:35 AM 25.5 °F - 22.8 °F 89% 29.70 in 1.0 mi Calm Calm - N/A   Overcast
8:55 AM 25.7 °F - 22.6 °F 88% 29.70 in 1.5 mi Calm Calm - N/A   Overcast
9:15 AM 26.2 °F 19.6 °F 22.8 °F 87% 29.70 in 2.5 mi SE 5.8 mph - N/A   Overcast
9:35 AM 26.4 °F 19.8 °F 22.8 °F 86% 29.70 in 3.0 mi ESE 5.8 mph - N/A   Overcast
9:55 AM 27.3 °F 22.0 °F 23.2 °F 84% 29.70 in 5.0 mi ESE 4.6 mph - N/A   Overcast
10:15 AM 28.2 °F 23.1 °F 23.0 °F 81% 29.70 in 7.0 mi ESE 4.6 mph - N/A   Overcast
10:35 AM 29.1 °F 24.1 °F 23.0 °F 78% 29.71 in 10.0 mi ESE 4.6 mph - N/A   Overcast
10:55 AM 30.0 °F 26.5 °F 22.8 °F 75% 29.71 in 10.0 mi SE 3.5 mph - N/A   Overcast
11:15 AM 30.9 °F - 23.5 °F 74% 29.70 in 10.0 mi Calm Calm - N/A   Overcast
11:35 AM 30.4 °F - 23.0 °F 74% 29.70 in 10.0 mi Calm Calm - N/A   Overcast
11:55 AM 31.8 °F - 23.9 °F 73% 29.70 in 10.0 mi Calm Calm - N/A   Overcast
12:15 PM 32.0 °F 28.7 °F 23.5 °F 71% 29.70 in 10.0 mi NNE 3.5 mph - N/A   Overcast
12:35 PM 33.4 °F - 22.8 °F 65% 29.69 in 10.0 mi Calm Calm - N/A   Overcast
12:55 PM 34.0 °F 29.8 °F 25.0 °F 70% 29.68 in 10.0 mi NE 4.6 mph - N/A   Overcast
1:15 PM 34.0 °F - 24.1 °F 67% 29.68 in 10.0 mi Calm Calm - N/A   Overcast
1:35 PM 34.5 °F - 23.4 °F 64% 29.67 in 10.0 mi Calm Calm - N/A   Overcast
1:55 PM 36.3 °F - 25.2 °F 64% 29.67 in 10.0 mi Calm Calm - N/A   Overcast
2:15 PM 37.6 °F 31.6 °F 21.4 °F 52% 29.67 in 10.0 mi SSW 8.1 mph - N/A   Mostly Cloudy
2:35 PM 38.7 °F 30.9 °F 18.1 °F 44% 29.67 in 10.0 mi SW 12.7 mph 20.7 mph N/A   Scattered Clouds
2:55 PM 38.3 °F 30.9 °F 16.9 °F 42% 29.68 in 10.0 mi WSW 11.5 mph 19.6 mph N/A   Mostly Cloudy
3:15 PM 36.9 °F 27.1 °F 16.3 °F 43% 29.68 in 10.0 mi West 17.3 mph 23.0 mph N/A   Scattered Clouds
3:35 PM 36.5 °F 26.0 °F 15.6 °F 43% 29.68 in 10.0 mi West 19.6 mph 26.5 mph N/A   Scattered Clouds
3:55 PM 36.9 °F 26.8 °F 16.9 °F 44% 29.70 in 10.0 mi WSW 18.4 mph 26.5 mph N/A   Mostly Cloudy
4:15 PM 36.3 °F 27.1 °F 16.9 °F 45% 29.70 in 10.0 mi WSW 15.0 mph 24.2 mph N/A   Scattered Clouds
4:35 PM 34.7 °F 25.1 °F 16.2 °F 47% 29.70 in 10.0 mi West 15.0 mph 19.6 mph N/A   Clear
4:55 PM 34.7 °F 25.1 °F 15.4 °F 45% 29.72 in 10.0 mi WSW 15.0 mph 20.7 mph N/A   Scattered Clouds
5:15 PM 33.1 °F 24.9 °F 16.3 °F 50% 29.72 in 10.0 mi WSW 10.4 mph 18.4 mph N/A   Scattered Clouds
5:35 PM 32.0 °F 23.0 °F 16.9 °F 54% 29.73 in 10.0 mi WSW 11.5 mph 20.7 mph N/A   Scattered Clouds
5:55 PM 31.3 °F 23.3 °F 16.5 °F 54% 29.74 in 10.0 mi WSW 9.2 mph - N/A   Scattered Clouds
6:15 PM 30.9 °F 22.2 °F 16.7 °F 56% 29.76 in 10.0 mi West 10.4 mph - N/A   Clear
6:35 PM 30.7 °F 22.6 °F 16.7 °F 56% 29.77 in 10.0 mi West 9.2 mph - N/A   Mostly Cloudy
6:55 PM 28.8 °F 22.6 °F 16.7 °F 61% 29.78 in 10.0 mi SW 5.8 mph - N/A   Scattered Clouds
7:15 PM 27.3 °F 19.9 °F 21.4 °F 78% 29.80 in 10.0 mi East 6.9 mph - N/A   Scattered Clouds
7:35 PM 25.7 °F 18.0 °F 21.7 °F 85% 29.81 in 10.0 mi SE 6.9 mph - N/A   Clear
7:55 PM 24.8 °F 16.1 °F 21.4 °F 87% 29.82 in 10.0 mi ESE 8.1 mph - N/A   Clear
8:15 PM 23.5 °F 14.5 °F 20.7 °F 89% 29.83 in 10.0 mi SE 8.1 mph - N/A   Clear
8:35 PM 23.0 °F 14.7 °F 20.3 °F 89% 29.84 in 10.0 mi SE 6.9 mph - N/A   Clear
8:55 PM 22.5 °F 13.2 °F 20.1 °F 91% 29.85 in 10.0 mi SSE 8.1 mph - N/A   Clear
9:15 PM 22.6 °F 14.3 °F 19.4 °F 87% 29.85 in 10.0 mi ESE 6.9 mph - N/A   Clear
9:35 PM 22.6 °F 13.4 °F 19.4 °F 87% 29.86 in 10.0 mi SE 8.1 mph - N/A   Clear
9:55 PM 22.5 °F - 18.9 °F 86% 29.86 in 10.0 mi Calm Calm - N/A   Clear
10:15 PM 22.1 °F - 18.5 °F 86% 29.87 in 10.0 mi Calm Calm - N/A   Clear
10:35 PM 21.0 °F 12.4 °F 18.1 °F 89% 29.87 in 10.0 mi ESE 6.9 mph - N/A   Clear
11:15 PM 19.9 °F 14.9 °F 17.4 °F 90% 29.87 in 10.0 mi ESE 3.5 mph - N/A   Clear
11:35 PM 18.9 °F - 16.9 °F 92% 29.87 in 7.0 mi Calm Calm - N/A   Clear
11:55 PM 19.0 °F - 16.7 °F 91% 29.87 in 10.0 mi Calm Calm - N/A   Scattered Clouds